Weather History for K4A6 - October, 2011

Change the Weather History Date:

Tuesday, October 11, 2011

  Actual Average (KHSV) Record (KHSV)
Temperature  
Mean Temperature 62 °F 64 °F  
Max Temperature 64 °F 76 °F 90 °F (1912)
Min Temperature 59 °F 53 °F 31 °F (2000)
Degree Days  
Heating Degree Days 4 3  
Month to date heating degree days 27  
Since 1 July heating degree days 40  
Cooling Degree Days 0 3  
Month to date cooling degree days 39  
Year to date cooling degree days 1909  
Growing Degree Days 12 (Base 50)    
Moisture  
Dew Point 60 °F    
Average Humidity 91    
Maximum Humidity 100    
Minimum Humidity 83    
Precipitation  
Precipitation 0.34 in 0.11 in 3.10 in (1902)
Month to date precipitation 1.21  
Year to date precipitation 41.25  
Snow  
Snow 0.00 in - - ()
Month to date snowfall  
Since 1 July snowfall  
Since 1 September snowfall  
Snow Depth -    
Sea Level Pressure  
Sea Level Pressure 29.97 in    
Wind  
Wind Speed 7 mph (NNE)    
Max Wind Speed 10 mph    
Max Gust Speed -    
Visibility 8 miles    
Events Rain    
T = Trace of Precipitation, MM = Missing Value Source: NWS Daily Summary

Daily Weather History Graph

Daily Weather History Graph

Search for Another Location

Airport or City:

Trip Planner

Search our weather history database for the weather conditions in past years. The results will help you decide how hot, cold, wet, or windy it might be!

Date:

Astronomy

Oct. 11, 2011 Rise Set
Actual Time 6:46 AM CDT 6:14 PM CDT
Civil Twilight 6:20 AM CDT 6:40 PM CDT
Nautical Twilight 5:51 AM CDT 7:09 PM CDT
Astronomical Twilight 5:22 AM CDT 7:38 PM CDT
Moon 5:48 PM CDT (10/11) 6:22 AM CDT (10/11)
Length of Visible Light 12h 19m
Length of Day
11h 28m
Full, 100% of the Moon is Illuminated
Oct 11
Full
Oct 11
Full
Oct 19
Last Quarter
Oct 26
New
Nov 2
First Quarter

Hourly Weather History & Observations

Time (CDT) Temp. Dew Point Humidity Pressure Visibility Wind Dir Wind Speed Gust Speed Precip Events Conditions
12:15 AM 62.6 °F 59.0 °F 88% 30.02 in 10.0 mi NNE 8.1 mph - N/A   Overcast
12:35 AM 62.6 °F 59.0 °F 88% 30.01 in 10.0 mi NNE 8.1 mph - N/A   Overcast
12:55 AM 62.6 °F 59.0 °F 88% 30.01 in 10.0 mi NNE 5.8 mph - N/A   Overcast
1:15 AM 62.6 °F 59.0 °F 88% 30.00 in 10.0 mi NE 8.1 mph - N/A Rain Light Rain
1:35 AM 62.6 °F 59.0 °F 88% 30.00 in 5.0 mi NNE 5.8 mph - 0.01 in Rain Light Rain
1:55 AM 60.8 °F 59.0 °F 94% 29.99 in 5.0 mi NNE 5.8 mph - 0.01 in Rain Light Rain
2:15 AM 60.8 °F 59.0 °F 94% 29.99 in 10.0 mi NNE 5.8 mph - N/A Rain Light Rain
2:35 AM 60.8 °F 59.0 °F 94% 29.98 in 10.0 mi NNE 6.9 mph - N/A   Overcast
2:55 AM 60.8 °F 59.0 °F 94% 29.98 in 10.0 mi NNE 6.9 mph - N/A   Overcast
3:35 AM 60.8 °F 57.2 °F 88% 29.98 in 10.0 mi NNE 8.1 mph - N/A Rain Light Rain
3:55 AM 60.8 °F 57.2 °F 88% 29.97 in 10.0 mi NE 9.2 mph - N/A   Overcast
4:15 AM 60.8 °F 57.2 °F 88% 29.98 in 10.0 mi NE 8.1 mph - N/A   Overcast
4:35 AM 60.8 °F 57.2 °F 88% 29.98 in 10.0 mi NNE 6.9 mph - N/A   Overcast
5:15 AM 60.8 °F 57.2 °F 88% 29.98 in 10.0 mi NNE 6.9 mph - N/A   Overcast
5:35 AM 60.8 °F 57.2 °F 88% 29.99 in 9.0 mi NE 5.8 mph - N/A   Overcast
5:55 AM 60.8 °F 57.2 °F 88% 29.99 in 6.0 mi NNE 4.6 mph - N/A Rain Light Rain
6:15 AM 59.0 °F 57.2 °F 94% 29.99 in 2.0 mi NNE 5.8 mph - 0.08 in Rain Light Rain
6:35 AM 59.0 °F 57.2 °F 94% 30.00 in 1.2 mi North 8.1 mph - 0.26 in Rain Heavy Rain
6:55 AM 59.0 °F 57.2 °F 94% 30.00 in 5.0 mi NNE 8.1 mph - 0.27 in Rain Light Rain
7:35 AM 59.0 °F 57.2 °F 94% 30.00 in 2.0 mi NE 9.2 mph - 0.02 in Rain Light Rain
8:15 AM 59.0 °F 59.0 °F 100% 30.01 in 3.0 mi NE 6.9 mph - N/A Rain Light Rain
8:35 AM 60.8 °F 59.0 °F 94% 30.01 in 5.0 mi NE 8.1 mph - N/A Rain Light Rain
8:55 AM 60.8 °F 59.0 °F 94% 30.01 in 10.0 mi NNE 9.2 mph - N/A   Overcast
9:15 AM 60.8 °F 59.0 °F 94% 30.01 in 10.0 mi NE 8.1 mph - N/A   Overcast
9:55 AM 62.6 °F 59.0 °F 88% 30.00 in 10.0 mi NE 8.1 mph - N/A   Overcast
10:15 AM 62.6 °F 59.0 °F 88% 30.00 in 10.0 mi NE 8.1 mph - N/A   Overcast
10:35 AM 62.6 °F 59.0 °F 88% 30.00 in 10.0 mi NE 9.2 mph - N/A   Overcast
10:55 AM 64.4 °F 59.0 °F 83% 30.00 in 10.0 mi NE 8.1 mph - N/A   Overcast
11:15 AM 62.6 °F 59.0 °F 88% 30.00 in 10.0 mi NE 6.9 mph - N/A   Overcast
11:35 AM 64.4 °F 60.8 °F 88% 30.00 in 10.0 mi NNE 6.9 mph - N/A Rain Light Rain
11:55 AM 64.4 °F 60.8 °F 88% 29.99 in 5.0 mi NE 8.1 mph - 0.01 in Rain Light Rain
12:15 PM 64.4 °F 60.8 °F 88% 29.99 in 9.0 mi NE 9.2 mph - N/A Rain Light Rain
12:35 PM 64.4 °F 60.8 °F 88% 29.98 in 7.0 mi NE 10.4 mph - N/A Rain Light Rain
12:55 PM 64.4 °F 60.8 °F 88% 29.97 in 2.5 mi NE 9.2 mph - 0.02 in Rain Light Rain
1:15 PM 64.4 °F 60.8 °F 88% 29.96 in 3.0 mi NNE 9.2 mph - 0.01 in Rain Light Rain
1:35 PM 64.4 °F 60.8 °F 88% 29.95 in 7.0 mi NNE 8.1 mph - 0.01 in Rain Light Rain
1:55 PM 64.4 °F 60.8 °F 88% 29.95 in 9.0 mi NNE 4.6 mph - 0.01 in   Overcast
2:15 PM 64.4 °F 62.6 °F 94% 29.94 in 7.0 mi NE 4.6 mph - N/A Rain Light Rain
2:35 PM 64.4 °F 62.6 °F 94% 29.94 in 10.0 mi NNE 5.8 mph - N/A Rain Light Rain
3:15 PM 64.4 °F 62.6 °F 94% 29.94 in 10.0 mi NNE 6.9 mph - N/A   Overcast
3:35 PM 64.4 °F 60.8 °F 88% 29.93 in 10.0 mi NE 8.1 mph - N/A   Overcast
3:55 PM 64.4 °F 60.8 °F 88% 29.93 in 10.0 mi NE 5.8 mph - N/A   Overcast
4:15 PM 64.4 °F 62.6 °F 94% 29.93 in 10.0 mi NE 6.9 mph - N/A   Overcast
4:35 PM 64.4 °F 62.6 °F 94% 29.93 in 10.0 mi NNE 4.6 mph - N/A   Overcast
4:55 PM 64.4 °F 60.8 °F 88% 29.93 in 10.0 mi NE 6.9 mph - N/A   Overcast
5:55 PM 62.6 °F 60.8 °F 94% 29.92 in 10.0 mi NNE 5.8 mph - N/A   Mostly Cloudy
6:35 PM 62.6 °F 60.8 °F 94% 29.92 in 10.0 mi NNE 3.5 mph - N/A   Overcast
6:55 PM 62.6 °F 60.8 °F 94% 29.93 in 10.0 mi Calm Calm - N/A   Overcast
7:15 PM 62.6 °F 60.8 °F 94% 29.93 in 10.0 mi NNE 3.5 mph - N/A   Overcast
7:35 PM 62.6 °F 60.8 °F 94% 29.94 in 10.0 mi North 3.5 mph - N/A   Overcast
7:55 PM 62.6 °F 60.8 °F 94% 29.94 in 9.0 mi North 3.5 mph - N/A   Overcast
8:15 PM 62.6 °F 60.8 °F 94% 29.94 in 10.0 mi Calm Calm - N/A   Mostly Cloudy
8:35 PM 62.6 °F 60.8 °F 94% 29.94 in 7.0 mi NE 3.5 mph - N/A   Mostly Cloudy
8:55 PM 62.6 °F 60.8 °F 94% 29.94 in 4.0 mi Calm Calm - N/A   Scattered Clouds
9:15 PM 62.6 °F 60.8 °F 94% 29.93 in 9.0 mi Calm Calm - N/A   Mostly Cloudy
9:35 PM 62.6 °F 60.8 °F 94% 29.93 in 9.0 mi Calm Calm - N/A   Mostly Cloudy
9:55 PM 62.6 °F 60.8 °F 94% 29.93 in 10.0 mi Calm Calm - N/A   Overcast
10:15 PM 62.6 °F 60.8 °F 94% 29.94 in 10.0 mi Calm Calm - N/A   Overcast
10:35 PM 62.6 °F 60.8 °F 94% 29.93 in 10.0 mi Calm Calm - N/A   Overcast
10:55 PM 62.6 °F 60.8 °F 94% 29.93 in 10.0 mi Calm Calm - N/A   Overcast
11:15 PM 62.6 °F 60.8 °F 94% 29.93 in 10.0 mi Calm Calm - N/A   Overcast
11:35 PM 62.6 °F 60.8 °F 94% 29.92 in 10.0 mi North 3.5 mph - N/A   Overcast